This is the latest recevied weather packets stored in our database for station/object OH6GKW. If no packets are shown the sender has not sent any weather packets the latest 10 day(s).
| Time | Temp. | Humidity | Pressure | Rain* | Wind** | Luminosity | Snow |
|---|---|---|---|---|---|---|---|
| 1777902211 | - | - | 996.3 hPa | 0 mm | - | - | - |
| 1777901918 | 10.56° C | 45% | 996.4 hPa | 0 mm | - | 359 W/m² | - |
| 1777901612 | 10.56° C | 45% | 996.4 hPa | 0 mm | - | 359 W/m² | - |
| 1777901335 | 10° C | 47% | 996.5 hPa | 0 mm | - | 334 W/m² | - |
| 1777901026 | 10° C | 44% | 996.5 hPa | 0 mm | - | 336 W/m² | - |
| 1777900717 | 10.56° C | 43% | 996.5 hPa | 0 mm | - | 318 W/m² | - |
| 1777900412 | 10.56° C | 45% | 996.6 hPa | 0 mm | - | 294 W/m² | - |
| 1777900124 | 11.11° C | 42% | 996.6 hPa | 0 mm | - | 282 W/m² | - |
| 1777899819 | 11.11° C | 45% | 996.6 hPa | 0 mm | - | 465 W/m² | - |
| 1777899509 | 10.56° C | 46% | 996.7 hPa | 0 mm | - | 538 W/m² | - |
| 1777899222 | 10.56° C | 44% | 996.7 hPa | 0 mm | - | 350 W/m² | - |
| 1777898911 | 11.11° C | 43% | 996.7 hPa | 0 mm | - | 340 W/m² | - |
| 1777898634 | 11.11° C | 41% | 996.9 hPa | 0 mm | - | 586 W/m² | - |
| 1777898326 | 11.11° C | 43% | 996.9 hPa | 0 mm | - | 598 W/m² | - |
| 1777898021 | 11.11° C | 43% | 996.9 hPa | 0 mm | - | 405 W/m² | - |
| 1777897709 | 11.11° C | 43% | 997.2 hPa | 0 mm | - | 575 W/m² | - |
| 1777897423 | 10.56° C | 45% | 997.2 hPa | 0 mm | - | 535 W/m² | - |
| 1777897114 | 10.56° C | 43% | 997.2 hPa | 0 mm | - | 489 W/m² | - |
| 1777896839 | 11.11° C | 43% | 997.2 hPa | 0 mm | - | 382 W/m² | - |
| 1777896521 | 11.11° C | 42% | 997.2 hPa | 0 mm | - | 329 W/m² | - |
| 1777896227 | 11.67° C | 43% | 997.2 hPa | 0 mm | - | 352 W/m² | - |
| 1777895934 | 11.67° C | 31% | 997.3 hPa | 0 mm | - | 385 W/m² | - |
| 1777895625 | 11.67° C | 30% | 997.3 hPa | 0 mm | - | 377 W/m² | - |
| 1777895323 | 11.67° C | 31% | 997.3 hPa | 0 mm | - | 401 W/m² | - |
| 1777895023 | 11.67° C | 30% | 997.4 hPa | 0 mm | - | 354 W/m² | - |
* Rain since midnight (hover to see other rain measurements)
** Current wind speed in m/s (hover to see current wind gust speed)